This is the latest recevied weather packets stored in our database for station/object WJ4C. If no packets are shown the sender has not sent any weather packets the latest 10 day(s).
| Time | Temp. | Humidity | Pressure | Rain* | Wind** | Luminosity | Snow |
|---|---|---|---|---|---|---|---|
| 1777424292 | 17.78° C | 93% | 1016.1 hPa | 0 mm | - | - | - |
| 1777423792 | 17.78° C | 92% | 1016.5 hPa | 0 mm | - | - | - |
| 1777423292 | 17.78° C | 92% | 1016.4 hPa | 0 mm | - | - | - |
| 1777422792 | 18.33° C | 91% | 1016.3 hPa | 0 mm | - | - | - |
| 1777422292 | 18.33° C | 90% | 1015.5 hPa | 0 mm | - | - | - |
| 1777421792 | 18.33° C | 89% | 1013.5 hPa | 0 mm | - | - | - |
| 1777421292 | 18.89° C | 86% | 1013.5 hPa | 0 mm | - | - | - |
| 1777420792 | 19.44° C | 85% | 1013.8 hPa | 0 mm | - | - | - |
| 1777420292 | 20° C | 84% | 1014.1 hPa | 0 mm | - | - | - |
| 1777419792 | 21.11° C | 87% | 1013.7 hPa | 0 mm | - | - | - |
| 1777419292 | 21.67° C | 92% | 1013.8 hPa | 0 mm | - | - | - |
| 1777418792 | 22.22° C | 91% | 1011.3 hPa | 0 mm | - | - | - |
| 1777418292 | 22.22° C | 89% | 1013.2 hPa | 0 mm | - | - | - |
| 1777417792 | 22.78° C | 87% | 1013.4 hPa | 0 mm | - | - | - |
| 1777417292 | 23.33° C | 86% | 1013.1 hPa | 0 mm | - | - | - |
| 1777416792 | 23.33° C | 83% | 1013.1 hPa | 0 mm | - | - | - |
| 1777416292 | 23.89° C | 83% | 1012.7 hPa | 0 mm | - | - | - |
| 1777415792 | 24.44° C | 81% | 1012.7 hPa | 0 mm | - | - | - |
| 1777415292 | 24.44° C | 80% | 1012.5 hPa | 0 mm | - | - | - |
| 1777414792 | 24.44° C | 79% | 1012.8 hPa | 0 mm | - | - | - |
| 1777414292 | 24.44° C | 79% | 1013 hPa | 0 mm | - | - | - |
| 1777413792 | 25° C | 78% | 1012.7 hPa | 0 mm | - | - | - |
| 1777413292 | 25° C | 77% | 1012.5 hPa | 0 mm | - | - | - |
| 1777412792 | 25° C | 76% | 1013.1 hPa | 0 mm | - | - | - |
| 1777412292 | 25.56° C | 76% | 1013.2 hPa | 0 mm | - | - | - |
* Rain latest hour (hover to see other rain measurements)
** Current wind speed in m/s (hover to see current wind gust speed)